User: anonymous   Login
Location: Observatory
(49.4490°N, 2.6360°W)
Time: 19:06:24
(UTC+01:00)
Language:

LilacSat-2 - Orbit

View from above orbital plane
View from above orbital plane
View from above satellite
View from above satellite

Ground track
Ground track

The orbit data is extracted from the following two-line orbital elements,

1 40908U 15049K   24147.16443692  .00010559  00000-0  41274-3 0  9994
2 40908  97.5240 155.7208 0014199  72.2854 287.9933 15.25955776480139
Epoch (UTC): 26 May 2024 03:56:47
Eccentricity: 0.0014199
inclination: 97.5240°
perigee height: 478 km
apogee height: 497 km
right ascension of ascending node: 155.7208°
argument of perigee: 72.2854°
revolutions per day: 15.25955776
mean anomaly at epoch: 287.9933°
orbit number at epoch: 48013

The dashed part of the orbit path shows where the satellite is in the earth's shadow,  

DLR